Regional Weather Roundup
Issued by NWS

Home | Current Version | Previous Version | Graphics & Text | Print | Product List | Glossary Off
Versions: 1 2 3 4 5 6 7 8 9 10 11 12 13 14 15 16 17 18 19 20 21 22 23 24 25 26 27 28 29 30 31 32 33 34 35 36 37 38 39 40 41 42 43 44 45 46 47 48 49 50

000
ASUS43 KMKX 311210
RWRWI

WISCONSIN REGIONAL WEATHER ROUNDUP
NATIONAL WEATHER SERVICE MILWAUKEE/SULLIVAN WI
600 AM CST SAT JAN 31 2015

NOTE: "FAIR" INDICATES FEW OR NO CLOUDS BELOW 12,000 FEET WITH NO
SIGNIFICANT WEATHER AND/OR OBSTRUCTIONS TO VISIBILITY.

WIZ001-002-006>008-014>016-023>028-311300-
NORTHWEST WISCONSIN

CITY           SKY/WX    TMP DP  RH WIND       PRES   REMARKS
SUPERIOR ARPT  CLOUDY    22  16  76 W3        30.18R
6HR MIN TEMP:  19; 6HR MAX TEMP:  22;

ASHLAND        CLOUDY    22  16  78 W6        30.15R WCI  14
6HR MIN TEMP:  20; 6HR MAX TEMP:  22;

HAYWARD        CLOUDY    21  14  74 CALM      30.14R
6HR MIN TEMP:  19; 6HR MAX TEMP:  21;

SIREN          CLOUDY    23  19  83 CALM      30.16R
6HR MIN TEMP:  21; 6HR MAX TEMP:  23;

CUMBERLAND     CLOUDY    21  16  79 CALM      30.13R
RICE LAKE      CLOUDY    20  14  76 CALM      30.15R
6HR MIN TEMP:  17; 6HR MAX TEMP:  20;

CHETEK         CLOUDY    20  14  77 CALM      30.14R
6HR MIN TEMP:  16; 6HR MAX TEMP:  20;

LADYSMITH      CLOUDY    20  13  75 CALM      30.14R
6HR MIN TEMP:  19; 6HR MAX TEMP:  20;

EAU CLAIRE     CLOUDY    22  14  71 CALM      30.13R
6HR MIN TEMP:  19; 6HR MAX TEMP:  22;

MENOMONIE      CLOUDY    24  18  77 CALM      30.14R
6HR MIN TEMP:  19; 6HR MAX TEMP:  24;

NEW RICHMOND   CLOUDY    26  22  85 NW3       30.14R
6HR MIN TEMP:  23; 6HR MAX TEMP:  26;

OSCEOLA        CLOUDY    26  22  85 CALM      30.18R
6HR MIN TEMP:  24; 6HR MAX TEMP:  26;

$$

WIZ003>005-009-010-017-018-311300-
NORTH CENTRAL WISCONSIN

CITY           SKY/WX    TMP DP  RH WIND       PRES   REMARKS
MANITOWISH WTR CLOUDY    17  15  91 W5        30.08R WCI  10
6HR MIN TEMP:  15; 6HR MAX TEMP:  17;

ARBOR VITAE    CLOUDY    19  15  85 CALM      30.08R
6HR MIN TEMP:  17; 6HR MAX TEMP:  19;

WOODRUFF       CLOUDY    19  15  85 CALM      30.08R
6HR MIN TEMP:  17; 6HR MAX TEMP:  19;

RHINELANDER    CLOUDY    17  11  77 W6        30.08R WCI   9
6HR MIN TEMP:  14; 6HR MAX TEMP:  17;

EAGLE RIVER    CLOUDY    17  12  81 W6        30.06R WCI   8
6HR MIN TEMP:  15; 6HR MAX TEMP:  17;

LAND O LAKES   CLOUDY    17  12  80 CALM      30.07R
6HR MIN TEMP:  16; 6HR MAX TEMP:  17;

PHILLIPS       CLOUDY    18  13  80 CALM      30.09S
6HR MIN TEMP:  17; 6HR MAX TEMP:  19;

TOMAHAWK       CLOUDY    19  13  77 CALM      30.10R
6HR MIN TEMP:  14; 6HR MAX TEMP:  19;

MEDFORD        CLOUDY    19  13  74 CALM      30.09S
6HR MIN TEMP:  16; 6HR MAX TEMP:  19;

MERRILL        CLOUDY    19  12  72 W3        30.11R
6HR MIN TEMP:  15; 6HR MAX TEMP:  19;

$$

WIZ029-030-035-036-043>047-311300-
CENTRAL WISCONSIN

CITY           SKY/WX    TMP DP  RH WIND       PRES   REMARKS
WAUSAU         CLOUDY    19  11  70 CALM      30.10R
6HR MIN TEMP:  15; 6HR MAX TEMP:  19;

MOSINEE        CLOUDY    19  12  73 SW3       30.12S
MARSHFIELD     CLOUDY    20  12  71 SW5       30.11R WCI  13
6HR MIN TEMP:  14; 6HR MAX TEMP:  20;

STEVENS POINT  CLOUDY    19  12  73 SW3       30.13R
6HR MIN TEMP:  12; 6HR MAX TEMP:  19;

WAUPACA        CLOUDY    22  15  74 S3        30.15S
6HR MIN TEMP:  18; 6HR MAX TEMP:  22;

WAUTOMA        MOCLDY    19  14  81 CALM      30.16S
6HR MIN TEMP:   9; 6HR MAX TEMP:  19;

WISC RAPIDS    CLOUDY    21  12  68 S3        30.14S
6HR MIN TEMP:  13; 6HR MAX TEMP:  21;

CAMP DOUGLAS   CLOUDY    25  19  76 SW3       30.14R
6HR MIN TEMP:  23; 6HR MAX TEMP:  26;

$$

WIZ011>013-019>022-031-037>040-048>050-311300-
NORTHEAST WISCONSIN

CITY           SKY/WX    TMP DP  RH WIND       PRES   REMARKS
ANTIGO         CLOUDY    18  11  73 W5        30.09R WCI  11
6HR MIN TEMP:  12; 6HR MAX TEMP:  18;

SHAWANO        CLOUDY    23  13  66 CALM      30.14S
6HR MIN TEMP:  19; 6HR MAX TEMP:  23;

OCONTO         CLOUDY    21  13  71 MISG      30.14S
6HR MIN TEMP:  19; 6HR MAX TEMP:  21;

STURGEON BAY   CLOUDY    21  12  68 SW8       30.15S WCI  12
6HR MIN TEMP:  19; 6HR MAX TEMP:  21;

GREEN BAY      CLOUDY    21  15  78 SW7       30.15S WCI  12
6HR MIN TEMP:  19; 6HR MAX TEMP:  21;

MANITOWOC      CLOUDY    23  17  78 SW8       30.16F WCI  14
6HR MIN TEMP:  21; 6HR MAX TEMP:  23;

APPLETON       CLOUDY    21  16  79 SW8       30.14F WCI  12
CLINTONVILLE   CLOUDY    21  12  68 SW3       30.14S
OSHKOSH        CLOUDY    22  15  75 S6        30.15F WCI  14
6HR MIN TEMP:  15; 6HR MAX TEMP:  22;

$$

WIZ032>034-041-042-053>061-311300-
SOUTHWEST WISCONSIN

CITY           SKY/WX    TMP DP  RH WIND       PRES   REMARKS
LA CROSSE      CLOUDY    24  16  71 S6        30.16S WCI  17
6HR MIN TEMP:  22; 6HR MAX TEMP:  25;

SPARTA         CLOUDY    25  16  66 CALM      30.15S
6HR MIN TEMP:  23; 6HR MAX TEMP:  26;

VIROQUA        CLEAR     19  14  80 SW3       30.13R
6HR MIN TEMP:  19; 6HR MAX TEMP:  22;

BOSCOBEL       PTCLDY    14  10  84 CALM      30.18F
6HR MIN TEMP:  14; 6HR MAX TEMP:  22;

PRAIRIE DU CHI CLEAR     20  14  78 CALM      30.18S
6HR MIN TEMP:  19; 6HR MAX TEMP:  25;

PLATTEVILLE    CLEAR     20  16  84 S8        30.17S WCI  10
6HR MIN TEMP:  19; 6HR MAX TEMP:  22;

$$

WIZ056-057-062-063-064-067-068-311300-
SOUTH CENTRAL WISCONSIN

CITY           SKY/WX    TMP DP  RH WIND       PRES   REMARKS
REEDSBURG      CLEAR     20  14  76 CALM      30.15R
6HR MIN TEMP:  19; 6HR MAX TEMP:  23;

BARABOO/DELLS  CLEAR     21  14  73 W6        30.14S WCI  14
6HR MIN TEMP:  21; 6HR MAX TEMP:  25;

LONE ROCK      CLEAR     14  10  84 E3        30.18S
6HR MIN TEMP:  14; 6HR MAX TEMP:  24;

MINERAL POINT  CLEAR     21  18  86 S7        30.15S WCI  13
MADISON        MOCLDY    24  15  68 VRB5      30.16F WCI  18
6HR MIN TEMP:  23; 6HR MAX TEMP:  25;

MIDDLETON      CLEAR     24  15  70 SW3       30.17S
6HR MIN TEMP:  24; 6HR MAX TEMP:  27;

WATERTOWN      CLOUDY    23  19  84 S5        30.16F WCI  17
6HR MIN TEMP:  15; 6HR MAX TEMP:  23;

MONROE         CLEAR     23  19  86 SW13      30.16S WCI  11
JANESVILLE     CLOUDY    27  18  69 SW8       30.19F WCI  18
$$

WIZ051-052-058>065-066-070>072-311300-
SOUTHEAST WISCONSIN

CITY           SKY/WX    TMP DP  RH WIND       PRES   REMARKS
MILWAUKEE      MOCLDY    23  16  74 SW9       30.19F WCI  13
6HR MIN TEMP:  19; 6HR MAX TEMP:  23;

WAUKESHA       CLOUDY    19  16  86 SW5       30.19F WCI  13
MILWAUKEE/TIMM CLOUDY    23  18  80 SW8       30.19F WCI  14
RACINE         MOCLDY    23  16  74 SW8       30.21F WCI  14
6HR MIN TEMP:  17; 6HR MAX TEMP:  23;

BURLINGTON     CLOUDY    23  18  81 S5        30.19F WCI  17
6HR MIN TEMP:  14; 6HR MAX TEMP:  23;

KENOSHA        CLOUDY    23  18  81 SW8       30.20F WCI  14
6HR MIN TEMP:  18; 6HR MAX TEMP:  23;

FOND DU LAC    CLOUDY    23  15  71 SW9       30.15F WCI  13
6HR MIN TEMP:  15; 6HR MAX TEMP:  24;

SHEBOYGAN      CLOUDY    23  16  74 SW9       30.16F WCI  13
6HR MIN TEMP:  17; 6HR MAX TEMP:  23;

WEST BEND      CLOUDY    27  18  69 SW6       30.16F WCI  20
JUNEAU         CLOUDY    22  17  82 S7        30.17S WCI  13
6HR MIN TEMP:  16; 6HR MAX TEMP:  22;

$$

LSZ147-162-311300-
LAKE SUPERIOR

STATION/POSITION TIME  TEMP    WIND        PRES    WAVE
                       AIR SEA DIR/SP/G            HT/PER
                 (UTC) (F)     (DEG/KT/KT) (MB)    (FT/S)
DEVILS ISLAND    1200   24     300/ 12/ 14 1021.7R
PORT WING        1140   22     230/  5/  8 1021.0R
SAXON HARBOR     1100   23     220/  5/  9 1020.0R
$$

LMZ867-665-643>646-311300-
LAKE MICHIGAN

STATION/POSITION TIME  TEMP    WIND        PRES    WAVE


USA.gov is the U.S. government's official web portal to all federal, state and local government web resources and services.